RH
4 4 5 6 5 5 4 4 4 4 3 4 4 4 4 4 4 6 5 6 6 6 5 5 7 21 46 50 22 17 39 52 56 44 37 33 29 16 14 13 11 8 6 7
3 3 2 2 2 2 2 2 2 2 2 2 2 2 2 2 1 1 1 1 2 2 2 2 2 3 4 15 50 54 24 36 43 32 19 43 45 32 20 15 14 12 9 6
2 2 2 2 2 2 2 2 2 2 2 2 2 2 2 2 2 2 1 1 1 1 1 1 1 1 1 1 2 26 56 28 35 61 95 45 38 40 37 24 17 16 14 12
2 2 2 2 2 2 2 2 2 3 3 3 3 3 2 2 2 2 1 1 1 1 1 1 1 1 1 1 1 1 8 52 37 30 54 100 64 60 48 41 27 22 18 16
3 3 3 3 3 3 3 3 3 3 3 3 2 2 2 2 1 1 1 1 1 1 1 1 1 1 1 1 1 1 1 1 36 45 26 43 98 74 92 76 47 31 27 22
4 4 4 4 4 4 4 4 4 4 3 3 2 2 2 2 2 2 2 1 1 1 1 1 1 1 1 1 1 1 1 1 1 10 46 35 28 91 97 92 82 51 36 30
4 4 4 5 5 5 4 5 4 4 3 20 2 3 2 2 2 2 2 2 1 1 1 1 1 1 1 1 1 1 1 1 1 1 2 37 44 28 88 96 95 90 61 40
6 5 5 5 4 5 5 5 5 8 28 13 3 3 3 3 2 2 2 2 2 2 2 2 2 2 2 1 1 1 3 3 2 2 2 2 23 41 35 64 95 93 97 73
6 4 6 5 5 5 5 5 4 4 4 4 3 4 3 3 3 3 2 2 2 2 2 2 2 2 2 2 2 2 6 14 28 25 15 4 2 15 34 50 57 97 96 93
6 6 6 6 6 5 5 5 4 4 4 6 5 5 4 4 4 3 3 3 3 3 3 3 3 3 2 2 2 2 2 17 30 46 66 68 17 4 5 26 50 60 86 97
7 6 6 6 6 6 6 6 5 5 6 7 8 16 5 5 5 4 4 4 4 4 4 4 4 4 3 3 3 3 2 2 14 25 53 82 96 58 14 3 15 40 65 82
7 6 7 7 7 7 6 6 7 8 7 8 8 7 7 7 6 6 5 5 6 5 5 5 5 4 4 4 3 4 3 2 4 13 30 32 39 86 65 18 5 7 32 50
7 7 8 7 7 7 8 8 8 8 8 8 8 7 8 8 8 7 7 6 7 7 6 6 6 5 5 4 4 5 4 4 3 4 21 25 27 29 78 99 22 56 12 14
10 9 9 10 10 11 12 13 13 13 12 11 11 10 10 9 9 9 9 8 8 8 8 8 8 7 6 5 5 5 5 5 4 4 3 10 17 20 44 93 99 94 40 31
12 13 14 16 16 18 18 18 18 18 18 18 16 14 12 11 11 11 11 10 9 10 10 10 10 10 8 7 6 6 5 6 5 5 4 3 3 6 15 22 30 71 98 90
17 18 18 21 21 21 22 22 21 20 19 20 19 19 16 14 13 14 13 12 12 12 12 12 13 11 10 10 8 7 6 6 6 6 5 4 3 2 2 5 11 13 20 80
20 18 21 18 14 16 18 20 22 23 22 20 19 20 20 19 18 18 17 16 15 15 15 14 14 13 12 12 10 9 8 7 6 5 5 5 4 4 3 2 2 2 6 29
18 18 18 10 7 8 11 14 20 23 23 20 18 20 21 23 24 24 23 22 20 19 18 16 14 14 13 12 12 11 9 7 6 6 5 5 4 4 4 4 3 2 2 2
16 16 13 9 8 7 7 10 16 22 24 23 21 22 23 24 26 26 29 27 24 23 21 18 15 15 14 14 13 12 10 8 7 6 5 5 5 4 4 4 3 3 2 2
17 12 9 9 9 8 7 8 11 18 23 25 25 25 26 26 26 21 30 29 29 27 24 18 17 17 14 14 14 13 11 10 8 6 6 5 5 5 4 4 3 2 2 4
12 10 10 8 9 9 7 7 10 16 22 23 27 26 28 27 26 26 24 27 31 30 26 20 20 17 15 15 15 14 12 10 7 6 6 6 6 6 5 4 3 2 3 5
10 10 10 9 9 9 9 8 10 16 21 19 29 27 28 29 27 27 28 34 33 33 26 23 24 18 16 16 15 14 13 10 7 6 6 6 6 6 5 3 3 6 7 8
11 10 10 10 10 9 8 8 11 19 15 18 31 28 29 31 30 27 28 30 33 34 28 28 26 20 18 17 15 14 13 10 7 6 6 6 6 5 4 6 8 11 12 10
15 14 13 12 10 9 8 8 19 19 12 20 32 31 28 31 33 30 28 30 33 35 34 33 27 22 20 18 16 15 14 10 8 6 6 6 5 5 6 11 15 15 13 10
16 14 14 12 10 9 7 11 22 15 10 18 29 30 31 32 37 34 31 33 35 37 38 37 28 25 21 19 17 16 14 10 8 7 6 5 5 5 9 16 17 14 14 16
17 15 12 10 9 8 8 17 16 10 10 18 30 34 34 33 37 38 36 34 35 40 43 39 31 26 22 20 18 17 15 11 9 8 7 5 4 7 11 15 19 47 47 62
Wind_Speed
29 29 31 31 31 31 30 33 33 32 33 34 35 37 38 38 40 42 42 44 45 46 45 45 46 46 47 49 49 51 52 53 51 51 49 44 41 41 40 36 34 31 31 30
28 28 27 29 28 29 29 31 29 28 28 30 29 31 34 37 37 39 41 43 45 47 48 48 47 48 48 50 54 54 56 58 59 59 56 55 50 47 48 45 41 38 36 36
29 28 27 27 27 27 28 27 26 25 26 28 28 30 32 33 36 38 40 42 43 46 49 51 53 52 51 50 52 57 59 62 63 63 63 62 60 54 51 51 49 46 43 43
26 27 27 26 26 25 25 25 25 25 24 28 25 31 28 31 32 34 36 39 41 42 44 48 52 56 59 58 56 57 61 66 67 69 69 68 66 65 58 55 58 54 51 49
26 26 26 26 25 25 23 24 24 24 23 23 23 22 35 27 29 31 33 36 39 42 44 46 49 51 55 60 64 65 63 64 72 74 74 75 73 72 69 64 62 64 59 56
27 26 27 26 25 24 24 24 23 21 20 21 21 22 28 27 28 29 31 31 32 35 39 42 46 50 55 59 64 68 71 71 70 75 80 79 80 78 78 76 72 69 69 64
29 28 27 27 26 25 24 21 18 18 19 21 19 22 26 25 26 28 28 28 28 29 30 33 36 40 42 47 54 62 71 75 76 77 78 84 85 84 83 83 81 76 75 75
27 28 29 27 27 23 22 20 22 19 16 22 21 24 24 25 25 24 25 25 24 24 25 28 30 34 38 40 42 47 56 65 75 78 81 84 88 89 88 88 88 86 81 81
31 29 26 26 24 23 22 22 20 22 21 21 25 24 26 25 24 23 22 23 23 22 24 25 28 31 35 37 38 40 43 47 51 57 62 81 87 92 92 91 92 91 91 85
28 25 26 24 23 22 23 21 23 23 21 21 22 24 27 21 22 23 23 23 21 22 22 24 27 32 36 38 40 39 42 47 43 47 50 46 61 85 94 93 93 96 94 93
26 25 25 23 24 24 23 23 23 21 21 20 19 23 21 21 21 22 23 22 22 24 23 24 27 30 33 36 38 40 39 39 52 50 46 43 40 42 68 90 93 94 97 97
25 24 24 25 22 22 21 21 20 21 21 20 19 28 21 21 21 22 22 21 21 23 23 25 27 28 31 34 36 38 39 39 40 50 54 50 51 48 43 63 84 92 94 97
25 25 23 23 22 22 21 20 20 20 18 19 20 27 22 21 20 21 22 22 22 22 23 26 28 28 30 32 35 36 37 38 39 38 53 60 55 57 55 56 63 65 84 90
26 24 23 24 20 19 19 18 18 19 20 20 21 25 23 22 22 21 21 22 23 24 24 26 28 29 30 32 35 35 36 38 39 39 38 46 55 56 58 50 46 58 64 69
26 25 24 22 20 19 17 16 16 18 20 21 22 24 26 23 23 23 22 22 24 25 26 28 29 29 30 32 34 36 37 38 39 40 42 42 39 42 55 57 57 58 61 63
29 27 25 23 19 15 13 12 12 13 16 18 21 23 27 26 27 26 23 23 25 27 29 30 32 32 31 33 35 36 37 39 40 41 42 42 40 44 45 54 60 58 58 64
32 29 27 23 19 15 11 13 14 15 16 18 21 24 26 28 28 28 26 25 26 27 29 31 33 33 33 34 35 37 38 40 42 44 44 44 45 46 45 46 48 48 53 56
34 32 27 23 21 19 14 15 16 16 17 19 22 24 25 28 29 30 28 27 28 28 29 31 33 33 35 35 36 38 39 41 44 46 47 47 47 47 50 51 53 51 49 54
36 34 30 27 22 20 18 19 17 18 19 20 21 23 25 26 27 32 26 29 29 29 29 31 32 34 35 35 37 39 39 42 44 46 47 48 50 52 53 52 52 56 57 55
38 35 33 28 25 23 19 21 19 21 20 22 23 24 25 26 28 34 25 29 29 30 30 31 33 35 36 36 38 40 41 43 45 47 49 51 52 52 54 55 55 54 54 53
39 38 34 31 29 27 20 22 20 21 22 23 25 26 26 25 27 30 29 30 30 30 31 32 34 36 35 37 39 41 42 44 46 49 52 53 55 56 58 57 57 55 53 53
40 39 37 35 32 27 25 24 23 22 24 26 27 27 28 28 27 27 29 29 31 31 31 33 35 36 36 38 40 42 43 46 47 50 53 55 57 60 58 56 53 50 48 45
45 42 39 35 31 31 28 26 25 24 25 26 28 29 27 29 28 27 28 29 31 31 32 34 36 36 38 39 41 42 44 46 48 51 53 56 59 59 56 51 48 45 42 39
46 43 41 37 35 33 31 28 28 28 27 27 30 33 32 30 30 30 29 30 31 32 33 35 36 37 39 40 42 43 44 47 49 51 54 57 59 55 51 47 44 41 38 36
43 44 40 37 37 36 33 31 32 31 30 31 32 35 34 31 30 30 31 31 33 34 35 36 37 38 39 41 42 43 44 47 50 52 54 57 58 53 47 44 42 38 37 34
45 39 38 36 38 38 35 32 35 34 32 34 35 37 36 33 32 31 32 33 34 36 36 37 38 39 40 41 43 44 45 48 50 53 54 56 56 49 45 40 37 37 33 31
Wind_Direction
228 227 228 231 233 239 243 241 243 245 247 249 251 254 257 258 257 257 258 261 263 264 264 260 258 253 251 250 248 246 250 255 254 260 260 254 254 252 255 256 250 245 248 245
226 230 228 229 230 232 235 241 243 245 249 253 254 257 259 261 262 263 263 263 263 263 264 265 263 261 256 249 249 248 248 248 253 255 252 255 254 253 252 253 255 252 250 248
225 226 227 227 228 229 234 239 240 246 248 253 259 259 261 263 266 267 267 267 266 266 267 266 266 266 263 258 251 247 246 248 248 250 252 255 255 252 253 255 255 254 247 248
222 222 220 221 225 228 232 236 240 244 247 252 259 271 265 270 272 273 274 274 273 271 268 266 266 266 267 264 260 255 247 244 246 248 248 250 252 255 252 251 251 248 251 248
217 218 221 226 231 235 237 238 240 244 250 256 258 266 271 271 273 273 274 274 276 277 277 276 273 268 263 262 263 261 255 249 244 244 245 246 247 251 252 248 248 250 247 248
224 225 228 231 232 233 233 235 239 244 249 256 258 256 269 272 273 274 277 280 281 282 282 281 278 275 272 267 261 258 259 255 249 245 245 244 244 244 247 249 248 246 247 245
226 227 226 225 226 229 231 231 235 239 242 236 248 252 265 271 275 279 281 282 286 292 294 296 296 294 288 278 270 264 260 256 253 247 243 244 245 243 242 245 247 245 248 247
225 224 226 227 230 230 226 224 222 220 226 249 251 260 270 273 276 278 282 290 295 299 304 309 312 308 302 296 291 276 264 260 257 253 247 242 241 244 244 242 243 244 241 245
221 228 223 222 221 223 223 224 230 230 237 249 259 267 271 273 276 283 286 289 297 302 306 314 316 316 307 306 301 303 288 275 270 270 263 250 243 241 241 243 243 244 243 241
220 214 214 218 221 218 221 224 226 230 239 246 259 269 271 274 280 286 290 296 302 305 310 316 317 318 317 313 311 306 314 281 274 278 273 268 258 246 243 242 241 244 245 242
210 214 215 215 216 219 222 226 231 237 241 243 255 262 274 279 283 288 292 300 306 307 312 313 314 317 316 316 312 310 312 308 276 279 273 274 274 270 250 245 245 242 243 245
209 212 210 215 218 221 226 229 231 234 240 246 250 266 271 279 281 286 290 296 300 305 308 308 311 316 317 316 316 314 312 318 302 272 274 275 281 279 267 252 245 246 245 245
204 205 207 208 214 219 222 226 231 238 244 250 255 264 268 272 278 282 287 292 296 302 305 306 309 314 319 320 320 317 316 317 318 299 270 277 277 283 286 254 252 249 247 249
203 204 206 207 212 218 224 229 237 244 248 250 253 268 264 272 274 280 283 286 290 298 303 306 310 313 319 322 321 321 318 317 316 311 303 281 277 283 287 281 246 251 253 254
208 208 209 209 215 218 225 233 240 247 252 254 257 265 271 269 273 281 284 287 290 299 303 307 310 312 315 316 319 322 323 321 320 316 314 309 302 290 280 279 279 272 255 255
212 210 207 208 209 217 226 240 251 261 267 265 264 262 270 273 278 283 285 288 291 299 303 307 310 311 313 314 317 319 320 321 320 318 315 311 303 297 294 282 277 278 276 273
212 208 208 211 218 228 241 256 272 279 287 287 279 273 272 272 275 280 283 289 291 296 300 303 308 310 312 312 314 316 318 320 321 320 318 315 311 308 300 296 288 280 275 277
211 212 213 220 229 238 246 262 276 290 298 301 291 279 275 273 273 277 282 287 289 293 297 302 305 308 310 311 314 316 319 322 323 322 318 316 311 307 307 302 298 294 288 277
214 216 220 226 235 246 252 263 280 292 299 306 296 286 281 280 279 277 284 284 289 292 296 299 302 307 309 310 314 316 320 323 324 323 321 318 315 311 307 304 298 292 289 283
218 222 226 230 238 246 253 261 276 287 296 300 302 294 286 285 282 281 284 283 288 291 297 299 303 307 309 311 314 315 318 322 326 325 323 320 316 312 309 305 299 293 285 282
224 226 230 233 239 247 254 260 267 281 294 299 306 300 288 287 285 289 289 288 291 294 297 299 303 306 309 311 312 313 317 322 328 328 327 323 319 315 312 307 303 296 288 284
227 229 232 236 243 250 255 260 267 277 280 291 300 302 293 286 288 290 289 289 289 291 293 297 302 305 308 309 310 313 318 323 328 329 329 325 320 317 315 310 303 298 291 284
228 232 236 242 246 251 257 264 270 273 279 288 296 302 294 286 287 290 290 289 288 289 292 297 301 304 307 309 312 315 317 323 328 330 330 327 323 321 318 311 306 302 297 291
230 232 237 239 246 252 256 263 271 274 280 287 294 299 299 290 284 286 290 291 290 290 293 297 299 303 307 310 313 314 318 323 329 331 331 328 325 323 319 314 308 304 300 296
231 235 238 241 245 251 257 261 269 276 280 287 294 295 296 291 285 284 288 290 290 291 294 296 298 303 308 310 312 314 318 324 330 332 331 329 326 325 322 317 312 306 303 298
231 235 239 243 245 248 255 263 269 275 280 286 293 294 295 291 285 284 287 291 292 293 294 295 298 303 306 310 313 315 319 325 330 331 331 329 327 326 323 318 316 310 305 302